contact:dominique.lefevre@mio.osupytheas.fr, maurice.libes@osupytheas.fr, didier.mallarino@osupytheas.fr
Project:EMSO http://www.emso-fr.org/EMSO-France
Depth: 2436.0 m
Title:EMSO Ligure Ouest : Data MII capteur MICROCAT
DateTime_Computer,Latitude,Longitude,Temperature,Conductivity,Pressure,DateTime_Instrument
DateTime_Computer,Latitude,Longitude,degC,S m-1,dbar,DateTime_Instrument
2021-05-31T00:00:58Z,42.805,6.029,13.3069,4.60045,2470.357,2021-5-31T02:02:10Z
2021-05-31T00:04:01Z,42.805,6.029,13.3028,4.60111,2470.334,2021-5-31T02:05:13Z
2021-05-31T00:07:04Z,42.805,6.029,13.3014,4.60067,2470.366,2021-5-31T02:08:16Z
2021-05-31T00:10:07Z,42.805,6.029,13.3024,4.60077,2470.357,2021-5-31T02:11:19Z
2021-05-31T00:13:10Z,42.805,6.029,13.3036,4.60091,2470.357,2021-5-31T02:14:22Z
2021-05-31T00:16:13Z,42.805,6.029,13.3054,4.60081,2470.334,2021-5-31T02:17:25Z
2021-05-31T00:19:16Z,42.805,6.029,13.3062,4.60064,2470.357,2021-5-31T02:20:29Z
2021-05-31T00:22:19Z,42.805,6.029,13.3042,4.60036,2470.357,2021-5-31T02:23:32Z
2021-05-31T00:25:23Z,42.805,6.029,13.3047,4.60035,2470.366,2021-5-31T02:26:35Z
2021-05-31T00:28:26Z,42.805,6.029,13.3029,4.60074,2470.343,2021-5-31T02:29:38Z
2021-05-31T00:31:29Z,42.805,6.029,13.3032,4.60065,2470.334,2021-5-31T02:32:41Z
2021-05-31T00:34:32Z,42.805,6.029,13.3025,4.60088,2470.343,2021-5-31T02:35:44Z
2021-05-31T00:37:35Z,42.805,6.029,13.3026,4.60088,2470.334,2021-5-31T02:38:47Z
2021-05-31T00:40:38Z,42.805,6.029,13.3031,4.60046,2470.334,2021-5-31T02:41:50Z
2021-05-31T00:43:41Z,42.805,6.029,13.3037,4.60080,2470.343,2021-5-31T02:44:54Z
2021-05-31T00:46:44Z,42.805,6.029,13.3034,4.60080,2470.334,2021-5-31T02:47:57Z
2021-05-31T00:49:47Z,42.805,6.029,13.3050,4.60089,2470.334,2021-5-31T02:51:00Z
2021-05-31T00:52:51Z,42.805,6.029,13.3021,4.60088,2470.357,2021-5-31T02:54:03Z
2021-05-31T00:55:54Z,42.805,6.029,13.3030,4.60059,2470.357,2021-5-31T02:57:06Z
2021-05-31T00:58:57Z,42.805,6.029,13.3044,4.60032,2470.366,2021-5-31T03:00:09Z
2021-05-31T01:02:00Z,42.805,6.029,13.3030,4.60069,2470.357,2021-5-31T03:03:12Z
2021-05-31T01:05:03Z,42.805,6.029,13.3018,4.60095,2470.32,2021-5-31T03:06:15Z
2021-05-31T01:08:06Z,42.805,6.029,13.3038,4.60119,2470.32,2021-5-31T03:09:18Z
2021-05-31T01:11:09Z,42.805,6.029,13.3022,4.60068,2470.306,2021-5-31T03:12:22Z
2021-05-31T01:14:12Z,42.805,6.029,13.3023,4.60059,2470.334,2021-5-31T03:15:25Z
2021-05-31T01:17:16Z,42.805,6.029,13.3025,4.60097,2470.273,2021-5-31T03:18:28Z
2021-05-31T01:20:19Z,42.805,6.029,13.3025,4.60051,2470.357,2021-5-31T03:21:31Z
2021-05-31T01:23:22Z,42.805,6.029,13.3047,4.60038,2470.343,2021-5-31T03:24:34Z
2021-05-31T01:26:25Z,42.805,6.029,13.3036,4.60085,2470.334,2021-5-31T03:27:37Z
2021-05-31T01:29:28Z,42.805,6.029,13.3035,4.60055,2470.32,2021-5-31T03:30:40Z
2021-05-31T01:32:31Z,42.805,6.029,13.3022,4.60075,2470.31,2021-5-31T03:33:43Z
2021-05-31T01:35:34Z,42.805,6.029,13.3016,4.60069,2470.273,2021-5-31T03:36:47Z
2021-05-31T01:38:37Z,42.805,6.029,13.3023,4.60062,2470.334,2021-5-31T03:39:50Z
2021-05-31T01:41:41Z,42.805,6.029,13.3052,4.60026,2470.334,2021-5-31T03:42:53Z
2021-05-31T01:44:44Z,42.805,6.029,13.3058,4.60061,2470.31,2021-5-31T03:45:56Z
2021-05-31T01:47:47Z,42.805,6.029,13.3073,4.60018,2470.297,2021-5-31T03:48:59Z
2021-05-31T01:50:50Z,42.805,6.029,13.3023,4.60057,2470.297,2021-5-31T03:52:02Z
2021-05-31T01:53:53Z,42.805,6.029,13.3067,4.60052,2470.297,2021-5-31T03:55:05Z
2021-05-31T01:56:56Z,42.805,6.029,13.3013,4.60064,2470.287,2021-5-31T03:58:08Z
2021-05-31T01:59:59Z,42.805,6.029,13.3033,4.60033,2470.334,2021-5-31T04:01:12Z
2021-05-31T02:03:02Z,42.805,6.029,13.3032,4.60081,2470.31,2021-5-31T04:04:15Z
2021-05-31T02:06:06Z,42.805,6.029,13.3029,4.60064,2470.357,2021-5-31T04:07:18Z
2021-05-31T02:09:09Z,42.805,6.029,13.3034,4.60064,2470.31,2021-5-31T04:10:21Z
2021-05-31T02:12:12Z,42.805,6.029,13.3025,4.60069,2470.31,2021-5-31T04:13:24Z
2021-05-31T02:15:15Z,42.805,6.029,13.3030,4.60073,2470.273,2021-5-31T04:16:27Z
2021-05-31T02:18:18Z,42.805,6.029,13.3036,4.60071,2470.273,2021-5-31T04:19:30Z
2021-05-31T02:21:21Z,42.805,6.029,13.3012,4.60081,2470.273,2021-5-31T04:22:33Z
2021-05-31T02:24:24Z,42.805,6.029,13.3020,4.60067,2470.31,2021-5-31T04:25:37Z
2021-05-31T02:27:27Z,42.805,6.029,13.3026,4.60055,2470.264,2021-5-31T04:28:40Z
2021-05-31T02:30:31Z,42.805,6.029,13.3053,4.60062,2470.273,2021-5-31T04:31:43Z
2021-05-31T02:33:34Z,42.805,6.029,13.3076,4.60068,2470.273,2021-5-31T04:34:46Z
2021-05-31T02:36:37Z,42.805,6.029,13.3069,4.60049,2470.25,2021-5-31T04:37:49Z
2021-05-31T02:39:40Z,42.805,6.029,13.3091,4.60084,2470.264,2021-5-31T04:40:52Z
2021-05-31T02:42:43Z,42.805,6.029,13.3070,4.60077,2470.31,2021-5-31T04:43:55Z
2021-05-31T02:45:46Z,42.805,6.029,13.3037,4.60057,2470.273,2021-5-31T04:46:58Z
2021-05-31T02:48:49Z,42.805,6.029,13.3059,4.60025,2470.287,2021-5-31T04:50:02Z
2021-05-31T02:51:52Z,42.805,6.029,13.3048,4.60044,2470.25,2021-5-31T04:53:05Z
2021-05-31T02:54:56Z,42.805,6.029,13.3039,4.60046,2470.25,2021-5-31T04:56:08Z
2021-05-31T02:57:59Z,42.805,6.029,13.3048,4.60035,2470.273,2021-5-31T04:59:11Z
2021-05-31T03:01:02Z,42.805,6.029,13.3039,4.60079,2470.287,2021-5-31T05:02:14Z
2021-05-31T03:04:05Z,42.805,6.029,13.3020,4.60074,2470.264,2021-5-31T05:05:17Z
2021-05-31T03:07:08Z,42.805,6.029,13.3019,4.60094,2470.24,2021-5-31T05:08:20Z
2021-05-31T03:10:11Z,42.805,6.029,13.3029,4.60088,2470.273,2021-5-31T05:11:23Z
2021-05-31T03:13:14Z,42.805,6.029,13.3047,4.60052,2470.273,2021-5-31T05:14:27Z
2021-05-31T03:16:17Z,42.805,6.029,13.3041,4.60045,2470.24,2021-5-31T05:17:30Z
2021-05-31T03:19:21Z,42.805,6.029,13.3054,4.60049,2470.24,2021-5-31T05:20:33Z
2021-05-31T03:22:24Z,42.805,6.029,13.3038,4.60044,2470.194,2021-5-31T05:23:36Z
2021-05-31T03:25:27Z,42.805,6.029,13.3051,4.60040,2470.264,2021-5-31T05:26:39Z
2021-05-31T03:28:30Z,42.805,6.029,13.3054,4.60039,2470.264,2021-5-31T05:29:42Z
2021-05-31T03:31:33Z,42.805,6.029,13.3058,4.60007,2470.25,2021-5-31T05:32:45Z
2021-05-31T03:34:36Z,42.805,6.029,13.3070,4.60020,2470.264,2021-5-31T05:35:48Z
2021-05-31T03:37:39Z,42.805,6.029,13.3056,4.60008,2470.227,2021-5-31T05:38:52Z
2021-05-31T03:40:42Z,42.805,6.029,13.3045,4.60007,2470.264,2021-5-31T05:41:55Z
2021-05-31T03:43:45Z,42.805,6.029,13.3039,4.60010,2470.227,2021-5-31T05:44:58Z
2021-05-31T03:46:49Z,42.805,6.029,13.3054,4.60033,2470.217,2021-5-31T05:48:01Z
2021-05-31T03:49:52Z,42.805,6.029,13.3039,4.60009,2470.227,2021-5-31T05:51:04Z
2021-05-31T03:52:55Z,42.805,6.029,13.3021,4.60016,2470.217,2021-5-31T05:54:07Z
2021-05-31T03:55:58Z,42.805,6.029,13.2999,4.60021,2470.264,2021-5-31T05:57:10Z
2021-05-31T03:59:01Z,42.805,6.029,13.3057,4.60014,2470.217,2021-5-31T06:00:13Z
2021-05-31T04:02:04Z,42.805,6.029,13.3016,4.60024,2470.203,2021-5-31T06:03:17Z
2021-05-31T04:05:07Z,42.805,6.029,13.3005,4.60021,2470.217,2021-5-31T06:06:20Z
2021-05-31T04:08:10Z,42.805,6.029,13.2991,4.60085,2470.217,2021-5-31T06:09:23Z
2021-05-31T04:11:14Z,42.805,6.029,13.2991,4.60026,2470.203,2021-5-31T06:12:26Z
2021-05-31T04:14:17Z,42.805,6.029,13.2990,4.60031,2470.25,2021-5-31T06:15:29Z
2021-05-31T04:17:20Z,42.805,6.029,13.3002,4.60014,2470.227,2021-5-31T06:18:32Z
2021-05-31T04:20:23Z,42.805,6.029,13.3006,4.60020,2470.194,2021-5-31T06:21:35Z
2021-05-31T04:23:26Z,42.805,6.029,13.2989,4.60019,2470.203,2021-5-31T06:24:38Z
2021-05-31T04:26:29Z,42.805,6.029,13.2990,4.60014,2470.18,2021-5-31T06:27:41Z
2021-05-31T04:29:32Z,42.805,6.029,13.2990,4.60019,2470.217,2021-5-31T06:30:45Z
2021-05-31T04:32:35Z,42.805,6.029,13.3000,4.60054,2470.194,2021-5-31T06:33:48Z
2021-05-31T04:35:39Z,42.805,6.029,13.2991,4.60012,2470.156,2021-5-31T06:36:51Z
2021-05-31T04:38:42Z,42.805,6.029,13.3000,4.60056,2470.217,2021-5-31T06:39:54Z
2021-05-31T04:41:45Z,42.805,6.029,13.2996,4.60024,2470.194,2021-5-31T06:42:57Z
2021-05-31T04:44:48Z,42.805,6.029,13.2990,4.60018,2470.156,2021-5-31T06:46:00Z
2021-05-31T04:47:51Z,42.805,6.029,13.2991,4.60076,2470.18,2021-5-31T06:49:03Z
2021-05-31T04:50:54Z,42.805,6.029,13.2993,4.60020,2470.194,2021-5-31T06:52:06Z
2021-05-31T04:53:57Z,42.805,6.029,13.2990,4.60033,2470.18,2021-5-31T06:55:10Z
2021-05-31T04:57:00Z,42.805,6.029,13.2988,4.60012,2470.171,2021-5-31T06:58:13Z
2021-05-31T05:00:04Z,42.805,6.029,13.2986,4.60007,2470.18,2021-5-31T07:01:16Z
2021-05-31T05:03:07Z,42.805,6.029,13.2988,4.60033,2470.194,2021-5-31T07:04:19Z
2021-05-31T05:06:10Z,42.805,6.029,13.2985,4.60029,2470.147,2021-5-31T07:07:22Z
2021-05-31T05:09:13Z,42.805,6.029,13.2990,4.60009,2470.147,2021-5-31T07:10:25Z
2021-05-31T05:12:16Z,42.805,6.029,13.3078,4.60069,2470.156,2021-5-31T07:13:28Z
2021-05-31T05:15:19Z,42.805,6.029,13.3006,4.60008,2470.171,2021-5-31T07:16:31Z
2021-05-31T05:18:22Z,42.805,6.029,13.2994,4.60031,2470.133,2021-5-31T07:19:35Z
2021-05-31T05:21:25Z,42.805,6.029,13.2992,4.60062,2470.156,2021-5-31T07:22:38Z
2021-05-31T05:24:28Z,42.805,6.029,13.2991,4.60026,2470.18,2021-5-31T07:25:41Z
2021-05-31T05:27:32Z,42.805,6.029,13.2996,4.60004,2470.133,2021-5-31T07:28:44Z
2021-05-31T05:30:35Z,42.805,6.029,13.2990,4.60086,2470.18,2021-5-31T07:31:47Z
2021-05-31T05:33:38Z,42.805,6.029,13.2993,4.60013,2470.147,2021-5-31T07:34:50Z
2021-05-31T05:36:41Z,42.805,6.029,13.2988,4.60016,2470.171,2021-5-31T07:37:53Z
2021-05-31T05:39:44Z,42.805,6.029,13.2986,4.60006,2470.147,2021-5-31T07:40:56Z
2021-05-31T05:42:47Z,42.805,6.029,13.2989,4.60006,2470.194,2021-5-31T07:44:00Z
2021-05-31T05:45:50Z,42.805,6.029,13.2990,4.60003,2470.133,2021-5-31T07:47:03Z
2021-05-31T05:48:53Z,42.805,6.029,13.2986,4.60000,2470.18,2021-5-31T07:50:06Z
2021-05-31T05:51:57Z,42.805,6.029,13.2983,4.60001,2470.171,2021-5-31T07:53:09Z
2021-05-31T05:55:00Z,42.805,6.029,13.2986,4.60001,2470.133,2021-5-31T07:56:12Z
2021-05-31T05:58:03Z,42.805,6.029,13.2986,4.59999,2470.156,2021-5-31T07:59:15Z
2021-05-31T06:01:06Z,42.805,6.029,13.2989,4.60012,2470.147,2021-5-31T08:02:18Z
2021-05-31T06:04:09Z,42.805,6.029,13.2989,4.59999,2470.143,2021-5-31T08:05:21Z
2021-05-31T06:07:12Z,42.805,6.029,13.2990,4.60003,2470.124,2021-5-31T08:08:25Z
2021-05-31T06:10:15Z,42.805,6.029,13.2989,4.60006,2470.147,2021-5-31T08:11:28Z
2021-05-31T06:13:18Z,42.805,6.029,13.2987,4.60008,2470.18,2021-5-31T08:14:31Z
2021-05-31T06:16:22Z,42.805,6.029,13.2989,4.60004,2470.124,2021-5-31T08:17:34Z
2021-05-31T06:19:25Z,42.805,6.029,13.2988,4.60003,2470.11,2021-5-31T08:20:37Z
2021-05-31T06:22:28Z,42.805,6.029,13.2987,4.60004,2470.147,2021-5-31T08:23:40Z
2021-05-31T06:25:31Z,42.805,6.029,13.2992,4.60004,2470.124,2021-5-31T08:26:43Z
2021-05-31T06:28:34Z,42.805,6.029,13.2985,4.60001,2470.11,2021-5-31T08:29:46Z
2021-05-31T06:31:37Z,42.805,6.029,13.2987,4.60003,2470.156,2021-5-31T08:32:50Z
2021-05-31T06:34:40Z,42.805,6.029,13.2989,4.60000,2470.133,2021-5-31T08:35:53Z
2021-05-31T06:37:43Z,42.805,6.029,13.2985,4.60002,2470.147,2021-5-31T08:38:56Z
2021-05-31T06:40:47Z,42.805,6.029,13.2991,4.60002,2470.171,2021-5-31T08:41:59Z
2021-05-31T06:43:50Z,42.805,6.029,13.2992,4.60004,2470.147,2021-5-31T08:45:02Z
2021-05-31T06:46:53Z,42.805,6.029,13.2988,4.60004,2470.147,2021-5-31T08:48:05Z
2021-05-31T06:49:56Z,42.805,6.029,13.2991,4.60004,2470.147,2021-5-31T08:51:08Z
2021-05-31T06:52:59Z,42.805,6.029,13.2986,4.60011,2470.147,2021-5-31T08:54:11Z
2021-05-31T06:56:02Z,42.805,6.029,13.2989,4.60017,2470.156,2021-5-31T08:57:14Z
2021-05-31T06:59:05Z,42.805,6.029,13.2990,4.60009,2470.133,2021-5-31T09:00:18Z
2021-05-31T07:02:08Z,42.805,6.029,13.2985,4.60003,2470.124,2021-5-31T09:03:21Z
2021-05-31T07:05:12Z,42.805,6.029,13.2990,4.60007,2470.11,2021-5-31T09:06:24Z
2021-05-31T07:08:15Z,42.805,6.029,13.2990,4.60005,2470.147,2021-5-31T09:09:27Z
2021-05-31T07:11:18Z,42.805,6.029,13.2984,4.60007,2470.156,2021-5-31T09:12:30Z
2021-05-31T07:14:21Z,42.805,6.029,13.2985,4.60009,2470.133,2021-5-31T09:15:33Z
2021-05-31T07:17:24Z,42.805,6.029,13.2987,4.60001,2470.133,2021-5-31T09:18:36Z
2021-05-31T07:20:27Z,42.805,6.029,13.2989,4.60006,2470.147,2021-5-31T09:21:39Z
2021-05-31T07:23:30Z,42.805,6.029,13.2985,4.60001,2470.11,2021-5-31T09:24:43Z
2021-05-31T07:26:33Z,42.805,6.029,13.2990,4.60004,2470.124,2021-5-31T09:27:46Z
2021-05-31T07:29:37Z,42.805,6.029,13.2986,4.60009,2470.087,2021-5-31T09:30:49Z
2021-05-31T07:32:40Z,42.805,6.029,13.2988,4.60016,2470.156,2021-5-31T09:33:52Z
2021-05-31T07:35:43Z,42.805,6.029,13.2988,4.60011,2470.133,2021-5-31T09:36:55Z
2021-05-31T07:38:46Z,42.805,6.029,13.2985,4.60008,2470.11,2021-5-31T09:39:58Z
2021-05-31T07:41:49Z,42.805,6.029,13.2988,4.60001,2470.133,2021-5-31T09:43:01Z
2021-05-31T07:44:52Z,42.805,6.029,13.2985,4.59999,2470.11,2021-5-31T09:46:04Z
2021-05-31T07:47:55Z,42.805,6.029,13.2987,4.60000,2470.11,2021-5-31T09:49:08Z
2021-05-31T07:50:58Z,42.805,6.029,13.2988,4.59998,2470.1,2021-5-31T09:52:11Z
2021-05-31T07:54:01Z,42.805,6.029,13.2989,4.60000,2470.087,2021-5-31T09:55:14Z
2021-05-31T07:57:05Z,42.805,6.029,13.2988,4.60009,2470.11,2021-5-31T09:58:17Z
2021-05-31T08:00:08Z,42.805,6.029,13.2991,4.60006,2470.156,2021-5-31T10:01:20Z
2021-05-31T08:03:11Z,42.805,6.029,13.2989,4.60015,2470.133,2021-5-31T10:04:23Z
2021-05-31T08:06:14Z,42.805,6.029,13.2986,4.60011,2470.147,2021-5-31T10:07:26Z
2021-05-31T08:09:17Z,42.805,6.029,13.2988,4.60009,2470.147,2021-5-31T10:10:29Z
2021-05-31T08:12:20Z,42.805,6.029,13.2986,4.60014,2470.147,2021-5-31T10:13:33Z
2021-05-31T08:15:23Z,42.805,6.029,13.2991,4.60014,2470.147,2021-5-31T10:16:36Z
2021-05-31T08:18:27Z,42.805,6.029,13.3002,4.60009,2470.124,2021-5-31T10:19:39Z
2021-05-31T08:21:30Z,42.805,6.029,13.2993,4.60011,2470.133,2021-5-31T10:22:42Z
2021-05-31T08:24:33Z,42.805,6.029,13.2993,4.60052,2470.133,2021-5-31T10:25:45Z
2021-05-31T08:27:36Z,42.805,6.029,13.3034,4.60022,2470.133,2021-5-31T10:28:48Z
2021-05-31T08:30:39Z,42.805,6.029,13.3019,4.60023,2470.147,2021-5-31T10:31:51Z
2021-05-31T08:33:42Z,42.805,6.029,13.2995,4.60029,2470.133,2021-5-31T10:34:55Z
2021-05-31T08:36:45Z,42.805,6.029,13.2994,4.60008,2470.147,2021-5-31T10:37:58Z
2021-05-31T08:39:48Z,42.805,6.029,13.2990,4.60077,2470.124,2021-5-31T10:41:01Z
2021-05-31T08:42:52Z,42.805,6.029,13.2993,4.60031,2470.171,2021-5-31T10:44:04Z
2021-05-31T08:45:55Z,42.805,6.029,13.2997,4.60011,2470.133,2021-5-31T10:47:07Z
2021-05-31T08:48:58Z,42.805,6.029,13.2998,4.60014,2470.156,2021-5-31T10:50:10Z
2021-05-31T08:52:01Z,42.805,6.029,13.3023,4.60092,2470.156,2021-5-31T10:53:13Z
2021-05-31T08:55:04Z,42.805,6.029,13.3015,4.60034,2470.133,2021-5-31T10:56:16Z
2021-05-31T08:58:07Z,42.805,6.029,13.3018,4.60014,2470.11,2021-5-31T10:59:20Z
2021-05-31T09:01:10Z,42.805,6.029,13.3026,4.60021,2470.156,2021-5-31T11:02:23Z
2021-05-31T09:04:13Z,42.805,6.029,13.3024,4.60031,2470.147,2021-5-31T11:05:26Z
2021-05-31T09:07:17Z,42.805,6.029,13.3031,4.60021,2470.147,2021-5-31T11:08:29Z
2021-05-31T09:10:20Z,42.805,6.029,13.3034,4.60024,2470.156,2021-5-31T11:11:32Z
2021-05-31T09:13:23Z,42.805,6.029,13.3033,4.60028,2470.147,2021-5-31T11:14:35Z
2021-05-31T09:16:26Z,42.805,6.029,13.3036,4.60050,2470.171,2021-5-31T11:17:38Z
2021-05-31T09:19:29Z,42.805,6.029,13.3043,4.60051,2470.171,2021-5-31T11:20:41Z
2021-05-31T09:22:32Z,42.805,6.029,13.3046,4.60014,2470.133,2021-5-31T11:23:45Z
2021-05-31T09:25:35Z,42.805,6.029,13.3030,4.60012,2470.147,2021-5-31T11:26:48Z
2021-05-31T09:28:38Z,42.805,6.029,13.3046,4.60042,2470.156,2021-5-31T11:29:51Z
2021-05-31T09:31:42Z,42.805,6.029,13.3044,4.60023,2470.133,2021-5-31T11:32:54Z
2021-05-31T09:34:45Z,42.805,6.029,13.3034,4.60042,2470.147,2021-5-31T11:35:57Z
2021-05-31T09:37:48Z,42.805,6.029,13.3034,4.60047,2470.171,2021-5-31T11:39:00Z
2021-05-31T09:40:51Z,42.805,6.029,13.3025,4.60069,2470.147,2021-5-31T11:42:03Z
2021-05-31T09:43:54Z,42.805,6.029,13.3028,4.60075,2470.171,2021-5-31T11:45:06Z
2021-05-31T09:46:57Z,42.805,6.029,13.3014,4.60102,2470.124,2021-5-31T11:48:10Z
2021-05-31T09:50:00Z,42.805,6.029,13.3009,4.60033,2470.147,2021-5-31T11:51:13Z
2021-05-31T09:53:04Z,42.805,6.029,13.3026,4.60107,2470.11,2021-5-31T11:54:16Z
2021-05-31T09:56:07Z,42.805,6.029,13.3024,4.60041,2470.133,2021-5-31T11:57:19Z
2021-05-31T09:59:10Z,42.805,6.029,13.3026,4.60044,2470.133,2021-5-31T12:00:22Z
2021-05-31T10:02:13Z,42.805,6.029,13.3039,4.60057,2470.147,2021-5-31T12:03:25Z
2021-05-31T10:05:16Z,42.805,6.029,13.3025,4.60077,2470.171,2021-5-31T12:06:28Z
2021-05-31T10:08:19Z,42.805,6.029,13.3022,4.60033,2470.147,2021-5-31T12:09:31Z
2021-05-31T10:11:22Z,42.805,6.029,13.3022,4.60078,2470.087,2021-5-31T12:12:35Z
2021-05-31T10:14:25Z,42.805,6.029,13.3035,4.60041,2470.133,2021-5-31T12:15:38Z
2021-05-31T10:17:29Z,42.805,6.029,13.3026,4.60062,2470.133,2021-5-31T12:18:41Z
2021-05-31T10:20:32Z,42.805,6.029,13.3032,4.60060,2470.133,2021-5-31T12:21:44Z
2021-05-31T10:23:35Z,42.805,6.029,13.3048,4.60044,2470.156,2021-5-31T12:24:47Z
2021-05-31T10:26:38Z,42.805,6.029,13.3018,4.60070,2470.171,2021-5-31T12:27:50Z
2021-05-31T10:29:41Z,42.805,6.029,13.3034,4.60044,2470.171,2021-5-31T12:30:53Z
2021-05-31T10:32:44Z,42.805,6.029,13.3027,4.60081,2470.194,2021-5-31T12:33:57Z
2021-05-31T10:35:47Z,42.805,6.029,13.3040,4.60046,2470.133,2021-5-31T12:37:00Z
2021-05-31T10:38:50Z,42.805,6.029,13.3019,4.60077,2470.147,2021-5-31T12:40:03Z
2021-05-31T10:41:54Z,42.805,6.029,13.3025,4.60036,2470.156,2021-5-31T12:43:06Z
2021-05-31T10:44:57Z,42.805,6.029,13.3057,4.60056,2470.133,2021-5-31T12:46:09Z
2021-05-31T10:48:00Z,42.805,6.029,13.3059,4.60056,2470.147,2021-5-31T12:49:12Z
2021-05-31T10:51:03Z,42.805,6.029,13.3019,4.60090,2470.124,2021-5-31T12:52:15Z
2021-05-31T10:54:06Z,42.805,6.029,13.3037,4.60074,2470.124,2021-5-31T12:55:18Z
2021-05-31T10:57:09Z,42.805,6.029,13.3011,4.60060,2470.171,2021-5-31T12:58:22Z
2021-05-31T11:00:12Z,42.805,6.029,13.3012,4.60051,2470.124,2021-5-31T13:01:25Z
2021-05-31T11:03:15Z,42.805,6.029,13.3022,4.60107,2470.133,2021-5-31T13:04:28Z
2021-05-31T11:06:19Z,42.805,6.029,13.3020,4.60055,2470.124,2021-5-31T13:07:31Z
2021-05-31T11:09:22Z,42.805,6.029,13.3015,4.60074,2470.133,2021-5-31T13:10:34Z
2021-05-31T11:12:25Z,42.805,6.029,13.3034,4.60067,2470.147,2021-5-31T13:13:37Z
2021-05-31T11:15:28Z,42.805,6.029,13.3023,4.60087,2470.114,2021-5-31T13:16:40Z
2021-05-31T11:18:31Z,42.805,6.029,13.3032,4.60075,2470.11,2021-5-31T13:19:43Z
2021-05-31T11:21:34Z,42.805,6.029,13.3029,4.60105,2470.133,2021-5-31T13:22:47Z
2021-05-31T11:24:37Z,42.805,6.029,13.3026,4.60117,2470.11,2021-5-31T13:25:50Z
2021-05-31T11:27:41Z,42.805,6.029,13.3027,4.60090,2470.124,2021-5-31T13:28:53Z
2021-05-31T11:30:44Z,42.805,6.029,13.3021,4.60085,2470.11,2021-5-31T13:31:56Z
2021-05-31T11:33:47Z,42.805,6.029,13.3025,4.60058,2470.11,2021-5-31T13:34:59Z
2021-05-31T11:36:50Z,42.805,6.029,13.3021,4.60102,2470.087,2021-5-31T13:38:02Z
2021-05-31T11:39:53Z,42.805,6.029,13.3021,4.60081,2470.147,2021-5-31T13:41:05Z
2021-05-31T11:42:56Z,42.805,6.029,13.3018,4.60060,2470.11,2021-5-31T13:44:08Z
2021-05-31T11:45:59Z,42.805,6.029,13.3036,4.60068,2470.119,2021-5-31T13:47:12Z
2021-05-31T11:49:02Z,42.805,6.029,13.3036,4.60031,2470.11,2021-5-31T13:50:15Z
2021-05-31T11:52:06Z,42.805,6.029,13.3034,4.60044,2470.133,2021-5-31T13:53:18Z
2021-05-31T11:55:09Z,42.805,6.029,13.3027,4.60031,2470.124,2021-5-31T13:56:21Z
2021-05-31T11:58:12Z,42.805,6.029,13.3013,4.60026,2470.124,2021-5-31T13:59:24Z
2021-05-31T12:01:15Z,42.805,6.029,13.3021,4.60054,2470.11,2021-5-31T14:02:27Z
2021-05-31T12:04:18Z,42.805,6.029,13.3029,4.60076,2470.11,2021-5-31T14:05:30Z
2021-05-31T12:07:21Z,42.805,6.029,13.3016,4.60097,2470.077,2021-5-31T14:08:33Z
2021-05-31T12:10:24Z,42.805,6.029,13.3032,4.60053,2470.124,2021-5-31T14:11:37Z
2021-05-31T12:13:27Z,42.805,6.029,13.3048,4.60054,2470.087,2021-5-31T14:14:40Z
2021-05-31T12:16:31Z,42.805,6.029,13.3014,4.60039,2470.11,2021-5-31T14:17:43Z
2021-05-31T12:19:34Z,42.805,6.029,13.3021,4.60052,2470.124,2021-5-31T14:20:46Z
2021-05-31T12:22:37Z,42.805,6.029,13.3034,4.60071,2470.1,2021-5-31T14:23:49Z
2021-05-31T12:25:40Z,42.805,6.029,13.3020,4.60108,2470.1,2021-5-31T14:26:52Z
2021-05-31T12:28:43Z,42.805,6.029,13.3029,4.60076,2470.077,2021-5-31T14:29:55Z
2021-05-31T12:31:46Z,42.805,6.029,13.3067,4.60103,2470.1,2021-5-31T14:32:59Z
2021-05-31T12:34:49Z,42.805,6.029,13.3058,4.60110,2470.1,2021-5-31T14:36:02Z
2021-05-31T12:37:52Z,42.805,6.029,13.3059,4.60062,2470.063,2021-5-31T14:39:05Z
2021-05-31T12:40:56Z,42.805,6.029,13.3044,4.60052,2470.1,2021-5-31T14:42:08Z
2021-05-31T12:43:59Z,42.805,6.029,13.3011,4.60032,2470.077,2021-5-31T14:45:11Z
2021-05-31T12:47:02Z,42.805,6.029,13.3021,4.60057,2470.077,2021-5-31T14:48:14Z
2021-05-31T12:50:05Z,42.805,6.029,13.3021,4.60073,2470.087,2021-5-31T14:51:17Z
2021-05-31T12:53:08Z,42.805,6.029,13.3021,4.60064,2470.087,2021-5-31T14:54:20Z
2021-05-31T12:56:11Z,42.805,6.029,13.3020,4.60074,2470.077,2021-5-31T14:57:24Z
2021-05-31T12:59:14Z,42.805,6.029,13.3027,4.60053,2470.063,2021-5-31T15:00:27Z
2021-05-31T13:02:17Z,42.805,6.029,13.3008,4.60084,2470.053,2021-5-31T15:03:30Z
2021-05-31T13:05:21Z,42.805,6.029,13.3005,4.60069,2470.077,2021-5-31T15:06:33Z
2021-05-31T13:08:24Z,42.805,6.029,13.3013,4.60097,2470.087,2021-5-31T15:09:36Z
2021-05-31T13:11:27Z,42.805,6.029,13.3008,4.60106,2470.077,2021-5-31T15:12:39Z
2021-05-31T13:14:30Z,42.805,6.029,13.3007,4.60095,2470.063,2021-5-31T15:15:42Z
2021-05-31T13:17:33Z,42.805,6.029,13.3001,4.60084,2470.04,2021-5-31T15:18:45Z
2021-05-31T13:20:36Z,42.805,6.029,13.3015,4.60092,2470.04,2021-5-31T15:21:49Z
2021-05-31T13:23:39Z,42.805,6.029,13.3011,4.60037,2470.04,2021-5-31T15:24:52Z
2021-05-31T13:26:42Z,42.805,6.029,13.3008,4.60079,2470.063,2021-5-31T15:27:55Z
2021-05-31T13:29:46Z,42.805,6.029,13.3004,4.60075,2470.063,2021-5-31T15:30:58Z
2021-05-31T13:32:49Z,42.805,6.029,13.3012,4.60092,2470.1,2021-5-31T15:34:01Z
2021-05-31T13:35:52Z,42.805,6.029,13.3017,4.60067,2470.063,2021-5-31T15:37:04Z
2021-05-31T13:38:55Z,42.805,6.029,13.3034,4.60082,2470.077,2021-5-31T15:40:07Z
2021-05-31T13:41:58Z,42.805,6.029,13.3012,4.60057,2470.04,2021-5-31T15:43:10Z
2021-05-31T13:45:01Z,42.805,6.029,13.3024,4.60057,2470.04,2021-5-31T15:46:14Z
2021-05-31T13:48:04Z,42.805,6.029,13.3017,4.60128,2470.04,2021-5-31T15:49:17Z
2021-05-31T13:51:07Z,42.805,6.029,13.3014,4.60143,2470.053,2021-5-31T15:52:20Z
2021-05-31T13:54:11Z,42.805,6.029,13.3024,4.60035,2470.063,2021-5-31T15:55:23Z
2021-05-31T13:57:14Z,42.805,6.029,13.3006,4.60075,2470.04,2021-5-31T15:58:26Z
2021-05-31T14:00:17Z,42.805,6.029,13.3006,4.60084,2470.077,2021-5-31T16:01:29Z
2021-05-31T14:03:20Z,42.805,6.029,13.3021,4.60029,2470.053,2021-5-31T16:04:32Z
2021-05-31T14:06:23Z,42.805,6.029,13.3013,4.60099,2470.053,2021-5-31T16:07:35Z
2021-05-31T14:09:26Z,42.805,6.029,13.3021,4.60108,2470.04,2021-5-31T16:10:39Z
2021-05-31T14:12:29Z,42.805,6.029,13.3029,4.60114,2470.03,2021-5-31T16:13:42Z
2021-05-31T14:15:33Z,42.805,6.029,13.3026,4.60059,2470.063,2021-5-31T16:16:45Z
2021-05-31T14:18:36Z,42.805,6.029,13.3009,4.60056,2470.04,2021-5-31T16:19:48Z
2021-05-31T14:21:39Z,42.805,6.029,13.3015,4.60039,2470.04,2021-5-31T16:22:51Z
2021-05-31T14:24:42Z,42.805,6.029,13.3017,4.60045,2470.04,2021-5-31T16:25:54Z
2021-05-31T14:27:45Z,42.805,6.029,13.3012,4.60067,2470.03,2021-5-31T16:28:57Z
2021-05-31T14:30:48Z,42.805,6.029,13.3011,4.60122,2470.03,2021-5-31T16:32:00Z
2021-05-31T14:33:51Z,42.805,6.029,13.3019,4.60097,2470.03,2021-5-31T16:35:04Z
2021-05-31T14:36:54Z,42.805,6.029,13.3015,4.60118,2470.03,2021-5-31T16:38:07Z
2021-05-31T14:39:58Z,42.805,6.029,13.3025,4.60049,2470.04,2021-5-31T16:41:10Z
2021-05-31T14:43:01Z,42.805,6.029,13.3021,4.60084,2470.03,2021-5-31T16:44:13Z
2021-05-31T14:46:04Z,42.805,6.029,13.3015,4.60066,2470.03,2021-5-31T16:47:16Z
2021-05-31T14:49:07Z,42.805,6.029,13.3022,4.60095,2470.053,2021-5-31T16:50:19Z
2021-05-31T14:52:10Z,42.805,6.029,13.3034,4.60046,2470.04,2021-5-31T16:53:22Z
2021-05-31T14:55:13Z,42.805,6.029,13.3032,4.60054,2470.017,2021-5-31T16:56:26Z
2021-05-31T14:58:16Z,42.805,6.029,13.3024,4.60056,2470.03,2021-5-31T16:59:29Z
2021-05-31T15:01:19Z,42.805,6.029,13.3020,4.60062,2470.017,2021-5-31T17:02:32Z
2021-05-31T15:04:23Z,42.805,6.029,13.3021,4.60074,2469.984,2021-5-31T17:05:35Z
2021-05-31T15:07:26Z,42.805,6.029,13.3033,4.60072,2470.017,2021-5-31T17:08:38Z
2021-05-31T15:10:29Z,42.805,6.029,13.3011,4.60051,2470.007,2021-5-31T17:11:41Z